Regional Weather Roundup
Issued by NWS

Home | Current Version | Previous Version | Graphics & Text | Print | Product List | Glossary On
Versions: 1 2 3 4 5 6 7 8 9 10 11 12 13 14 15 16 17 18 19 20 21 22 23 24 25 26 27 28 29 30 31 32 33 34 35 36 37 38 39 40 41 42 43 44 45 46 47 48 49 50
000
ASUS45 KBOU 271707
RWRCO

WEATHER ROUNDUP FOR COLORADO
NATIONAL WEATHER SERVICE DENVER/BOULDER CO
1100 AM MDT SUN JUL 27 2014

NOTE: "FAIR" INDICATES FEW OR NO CLOUDS BELOW 12000 FEET WITH NO
SIGNIFICANT WEATHER AND/OR OBSTRUCTIONS TO VISIBILITY.

COZ001>005-013-030-031-271800-
...NORTHWEST COLORADO...

CITY           SKY/WX    TMP DP  RH WIND       PRES   REMARKS
CRAIG          PTSUNNY   61  51  70 CALM      30.41S
HAYDEN         PTSUNNY   68  48  49 E6        30.42S
MEEKER         CLOUDY    68  50  52 CALM      30.41S
MOUNT WERNER   NOT AVBL
STEAMBOAT SPGS PTSUNNY   66  50  55 CALM      30.44S
WALDEN         SUNNY     64  45  48 CALM      30.52S
$$

COZ006>008-011-271800-
...WEST CENTRAL VALLEYS...

CITY           SKY/WX    TMP DP  RH WIND       PRES   REMARKS
GRAND JUNCTION MOSUNNY   83  50  31 S3        30.26S
MONTROSE       SUNNY     81  49  32 CALM      30.34F
EAGLE          PTSUNNY   63  52  67 CALM      30.47F
RIFLE          PTSUNNY   74  52  46 CALM      30.33F
DELTA          SUNNY     84  48  28 CALM      30.30F
NUCLA          SUNNY     86  46  25 N6        30.36F
$$

COZ017>023-064>068-271800-
...SOUTHWEST COLORADO...

CITY           SKY/WX    TMP DP  RH WIND       PRES   REMARKS
DURANGO        MOSUNNY   80  46  30 VRB5      30.40S
CORTEZ         SUNNY     82  48  30 S5        30.34F
PAGOSA SPRINGS MOSUNNY   74  45  34 CALM      30.49F
TELLURIDE      SUNNY     72  45  37 CALM      30.57S
WOLF CREEK PAS NOT AVBL
$$

COZ009-010-012-014-032>034-037-058>063-271800-
...CENTRAL COLORADO...

CITY           SKY/WX    TMP DP  RH WIND       PRES   REMARKS
ASPEN          PTSUNNY   71  43  36 N5        30.47F
BUENA VISTA    SUNNY     73  42  33 SE7       30.51S
COPPER MTN     CLOUDY    59  36  41 W9        30.83R
BERTHOUD PASS  CLOUDY    50  36  57 SE7       30.88R
COTTONWOOD PAS SUNNY     70  39  32 SE8       30.66S
GUNNISON       MOSUNNY   66  48  52 CALM      30.52F
KREMMLING      MOSUNNY   63  45  51 CALM      30.51S
LEADVILLE      PTSUNNY   66  35  31 N3        30.63F
MONARCH PASS   MOSUNNY   59  41  51 E3        30.92S
SALIDA         SUNNY    N/A N/A N/A NE3       30.56F
SUNLIGHT       CLOUDY    64  45  48 CALM      30.73S
WILKERSON PASS NOT AVBL
$$

COZ069>075-271800-
...SAN LUIS VALLEY/SANGRE DE CRISTO MOUNTAINS...

CITY           SKY/WX    TMP DP  RH WIND       PRES   REMARKS
ALAMOSA        MOSUNNY   74  50  42 VRB3      30.47S
LA VETA PASS   MOSUNNY   64  50  59 E10G16    30.69S
SAGUACHE       PTSUNNY   72  48  43 W3        30.50S
$$

COZ035-036-038>040-271800-
...NORTHERN COLORADO FRONT RANGE...

CITY           SKY/WX    TMP DP  RH WIND       PRES   REMARKS
DENVER INTL AP MOSUNNY   74  56  53 VRB3      30.38R
DMNS CITY PARK   N/A     71  59  66 NW2G9     30.39S
AURORA         PTSUNNY   69  59  70 W8        30.41R
FRONT RANGE AP NOT AVBL
ERIE MUNI ARPT CLOUDY    69  64  83 N6        30.38S
BOULDER MUN AP PTSUNNY   72  63  73 NE10      30.39S
CENTENNIAL     PTSUNNY   71  57  61 N9        30.42R
BROOMFIELD     PTSUNNY   72  63  73 N10       30.41S
FORT COLLINS   PTSUNNY   72  61  68 E9        30.39F
LONGMONT       CLOUDY    71  64  77 N9        30.40S
$$

COZ041-046-047-076>085-087-088-271800-
...PIKES PEAK/PALMER DIVIDE AND SOUTHERN FOOTHILLS...

CITY           SKY/WX    TMP DP  RH WIND       PRES   REMARKS
COLO. SPRINGS  MOSUNNY   75  55  49 SE6       30.44R
A. F. ACADEMY  SUNNY     75  54  48 E8        30.45R
ELLICOTT       SUNNY     76  56  49 S8        30.42R
FALCON         SUNNY     74  54  48 CALM      30.49S
FORT CARSON    SUNNY     75  57  52 S7        30.41S
LIMON          SUNNY     79  50  36 SE18G25   30.38R
MONUMENT HILL  SUNNY     68  54  60 CALM      30.49R
TRINIDAD       MOSUNNY   80  53  39 NE10      30.38R
$$

COZ042>045-048>051-090-091-271800-
...NORTHEAST COLORADO...

CITY           SKY/WX    TMP DP  RH WIND       PRES   REMARKS
GREELEY ARPT   CLOUDY    73  57  56 E15G22    30.37S
AKRON          SUNNY     76  50  40 E17       30.37R
BURLINGTON     SUNNY     75  57  53 E9G20     30.34R
WRAY             N/A     84  45  25 E9G18     30.32S
STERLING       SUNNY     82  54  36 SE9       30.32F
HOLYOKE        PTSUNNY   81  50  34 E12       30.33S
FORT MORGAN    SUNNY     78  53  42 E14       30.36S
$$

COZ086-089-092>099-271800-
...SOUTHEAST COLORADO...

CITY           SKY/WX    TMP DP  RH WIND       PRES   REMARKS
PUEBLO         SUNNY     79  60  52 SE9       30.34R
LA JUNTA       MOSUNNY   79  63  57 E7        30.31R
LAMAR          MOSUNNY   80  65  59 E13       30.27S
SPRINGFIELD      N/A     80  64  58 NE13G22   30.30R
$$



USA.gov is the U.S. government's official web portal to all federal, state and local government web resources and services.